Погода Нижне-Усинское

Погода Нижне-Усинское : погода сейчас, прогноз погоды и архив. Всё, что Вы хотите узнать о погоде Нижне-Усинское!

Поиск расширенной информации на нашем сайте:

Другие новости

Новости СМИ2

Главная страница сайта

Новости сайта

02.10.2013

Напоминаем, что на нашем новом сайте вы можете получить высокодетализированные прогнозы погоды по пунктам России, СНГ и мира (включающие важные для авиации метеовеличины, такие как направление и скорость ветра, видимость, явления погоды, количество и форма облачности, нижняя и верхняя граница облачности), а также ознакомиться с разнообразными материалами по авиационной метеорологии и подборкой полезных ссылок на эту тему.

Сайт Метеоцентр.Азия посвящён разработке технологий оптимизации авиаметеорологического обслуживания, включая проектирование и перспективное создание нескольких автоматизированных авиаметеорологических систем:
- система выпуска высокодетальных прогностических карт явлений погоды для нижнего воздушного пространства по России и ближнему зарубежью;
- система верификации прогнозов TAF (выпускаемых синоптиками официальных АМСГ РФ и ближнего зарубежья) и AUTOTAF (выпускаемых сайтом Метеоцентр.Азия) - выявление ошибок, онлайн-сопоставление с фактической погодой METAR, автоматическое внесение коррективов в прогнозы при резком отклонении фактической погоды от прогноза, подсчёт оправдываемости прогнозов по элементам и в целом;
- система обработки, анализа и отображения авиаметеорологической информации для применения провайдерами метеорологической информации.


Погода Нижне-Усинское - сегодня

Время (UTC), дата Ветер
(°,м/с) 
Видим.   Явления Облачность Т
(°С)
Тd
(°С)
f(%) Тe
(°С)
Pmin
(гПа)
dP
(гПа)
Po
(мм)
O2
(г/м3)
Тmin Tmax R s Состояние
почвы
15 22.05.17 тихо ()   н/о    10/10 1000 м кучево-дожд. 
[Cb cap]
+13 +4.5 56 +13  1016.8  0.9  705  270           
18 22.05.17 тихо ()   н/о    9/3 1000 м средняя, верхняя 
[Sc|Ac trans|Ci fib]
+8 +5.1 82 +8  1019.1  0.9  706  275           
21 22.05.17 тихо ()   20000 м    10/10 1000 м кучево-дожд. 
[Cb cap]
+4.6 +3.4 92 +5  1020.8  0.5  706  279           
00 23.05.17 тихо ()   20000 м    9/5 1000 м средняя, верхняя 
[Sc|Ac trans|Ci sp]
+7.5 +5.3 86 +8  1020.7  0.8  707  276  +4.4         
03 23.05.17 тихо ()   20000 м    3/3 1000 м 
[Sc]
+18 +4.9 42 +18  1016.8  -1  706  266           
06 23.05.17 тихо ()   20000 м    8/3 1000 м верхняя 
[Sc|Ci fib]
+27.1 +4.3 23 +27  1011.4  -2.8  704  257           
09 23.05.17 130 (ЮВ) 20000 м    8/3 1000 м верхняя 
[Sc|Ci fib]
+30 +2.4 17 +30  1007.9  -2.6  702  254           
12 23.05.17 130 (ЮВ) 20000 м    9/5 1000 м верхняя 
[Sc|Ci fib]
+30 +3.9 19 +30  1006.3  -1.5  701  254    +30.7       
15 23.05.17 тихо ()   н/о    9/6 1000 м средняя, верхняя 
[Sc|Ac trans|Ci fib]
+14.5 +8.4 67 +15  1011.8  1.5  702  267           
18 23.05.17 тихо ()   н/о    ясно 
+7.5 +5.3 86 +8  1013.7  -0.1  702  274           
21 23.05.17 тихо ()   20000 м    3/3 1000 м 
[Sc]
+3.7 +2.5 92 +4  1016  1.1  703  279           
00 24.05.17 тихо ()   20000 м    4/4 1000 м 
[Sc]
+7.8 +5.1 83 +8  1015.8  0.9  704  275  +2.4         
03 24.05.17 тихо ()   20000 м    ясно 
+19 +5.6 41 +19  1013  0.3  704  264           
06 24.05.17 тихо ()   20000 м    ясно 
+29.8 +6.7 23 +30  1006.4  -3.6  701  254           
09 24.05.17 060 (СВ) 20000 м    4/4 1000 м 
[Sc]
+33 +6.6 19 +33  1003.3  -2.2  705  252           
12 24.05.17 330 (СЗ) 20000 м    9/5 1000 м верхняя 
[Sc|Ci fib]
+30 +7.1 24 +30  1002.3  -1.5  698  252    +33.6       
15 24.05.17 340 (С) н/о    9/6 1000 м верхняя 
[Sc|Ci sp]
+22.8 +7.8 38 +23  1006.9  2.7  700  259           
18 24.05.17 тихо ()   н/о    4/4 1000 м 
[Sc]
+15 +10.2 73 +18  1008.6  0.7  701  266           
21 24.05.17 тихо ()   20000 м    3/3 1000 м 
[Sc]
+9.2 +8 92 +9  1012.9  1.5  702  272           
00 25.05.17 тихо ()   20000 м    3/3 1000 м 
[Sc]
+13.5 +10.2 80 +16  1012.3  0.6  702  268  +9.1         
03 25.05.17 310 (СЗ) 20000 м    9/4 1000 м средняя, верхняя 
[Cu med, cong|Ac lent|Ci sp]
+22 +9.4 45 +24  1008.6  -1.4  701  260           
06 25.05.17 230 (ЮЗ) 20000 м    9/8 1000 м кучево-дожд., средняя, верхняя 
[Cb cap|Ac trans|Ci sp]
+27.6 +5.8 25 +28  1003.9  -3.1  699  255           
09 25.05.17 320 (СЗ) 10{20}  20000 м    10/10 1000 м кучево-дожд. 
[Cb cap]
+21.1 +7.6 42 +21  1006.9  1.3  700  260           
12 25.05.17 340 (С) 5{15}  20000 м    4/4 1000 м 
[Sc]
+21.5 +7.8 41 +22  1008.3  1.4  701  260    +27.9       
15 25.05.17 тихо ()   н/о  слаб. ливневой дождь  10/10 600 м кучево-дожд. 
[Cb cap]
+17 +1.1 34 +17  1011.8  2.2  703  266           
Время (UTC), дата Ветер
(°,м/с) 
Видим.   Явления Облачность Т
(°С)
Тd
(°С)
f(%) Тe
(°С)
Pmin
(гПа)
dP
(гПа)
Po
(мм)
O2
(г/м3)
Тmin Tmax R s Состояние
почвы

Для получения пояснительной информации подведите курсор к названию столбца.

ПОГОДА Нижне-Усинское - архив

Всё, что Вы хотите узнать о погоде Нижне-Усинское - удобно и подробно!

Выберите нужную дату (начиная с 1 января 2015* года) и нажмите кнопку "Найти".
Будут отображены архивные сводки погоды по пункту Нижне-Усинское, начиная с указанной даты.


Отображать данные в формате CSV (для использования в таблицах Excel)


Внимание! Наш архив погоды предназначен исключительно для личного некоммерческого использования в познавательных целях. Если Вам необходимы официальные справки о состоянии погоды (для производственных, юридических, коммерческих и т.п. целей), обращайтесь в органы Росгидромета.

*Примечание: данная дата относится к архиву по метеостанциям СССР (Россия, СНГ, Балтия).
Архив по метеостанциям Зарубежной Европы и Азии (кроме Китая) хранится 10 дней, по другим регионам земного шара (Китай, Африка, Америка, Австралия, Океания) - 1 день.

Нижне-Усинское - район местоположения метеостанции


Название, широта, долгота, высота метеостанции:
Нижне-Усинское 52.3°ш. 93°д. 660 м над ур. моря [Российская Федерация]

Дополнительная информация

В oтличие oт бoльшинства пoгoдных сайтoв мы публикуем пoдрoбную метеoинфoрмацию в детальнoм прoфессиoнальнoм фoрмате.

Характеристики температуры и влажнoсти вoздуха измеряются на высoте 2 м в тени вдали oт зданий и деревьев.
Скoрoсть ветра измеряется на высoте 10 м (на урoвне рoста челoвека скoрoсть ветра ниже в 1.5-2 раза). Если метеoстанция нахoдится в гoрoде или в лесу, тo скoрoсть ветра занижена на 2-4 м/с пo сравнению с oткрытым местoм. Скoрoсть ветра над акватoриями крупных рек и oзёр, а также на вершинах хoлмoв на 2-5 м/с выше, чем в oбычных услoвиях.
Атмoсфернoе давление в разных тoчках местнoсти мoжет значительнo oтличаться oт давления на метеoстанции, в зависимoсти oт услoвий рельефа (при пoдъёме на 10 м давление пoнижается примернo на 1 мм рт.ст.).